{"data":{"norad_id":56398,"epoch":"2026-05-23T22:23:50.210592Z","epoch_age_seconds":164257,"freshness":"FRESH","line1":"1 56398U 23061AA  26143.93322003  .00000155  00000+0  15157-4 0  9994","line2":"2 56398  43.0053 121.9720 0001690 277.5127  82.5532 15.27575712168380","mean_motion":15.27575712,"eccentricity":0.000169,"inclination_deg":43.0053,"raan_deg":121.972,"arg_perigee_deg":277.5127,"mean_anomaly_deg":82.5532,"bstar":1.5157e-5,"rev_number":16838,"period_min":94.267013326276,"perigee_km":481.90239326412,"apogee_km":484.22147850445,"semimajor_km":6861.1989358843,"source":"CELESTRAK","updated_at":"2026-05-25T13:38:18.015142Z"}}